Regional Weather Roundup
Issued by NWS

Home | Current Version | Previous Version | Graphics & Text | Print | Product List | Glossary On
Versions: 1 2 3 4 5 6 7 8 9 10 11 12 13 14 15 16 17 18 19 20 21 22 23 24 25 26 27 28 29 30 31 32 33 34 35 36 37 38 39 40 41 42 43 44 45 46 47 48 49 50
905
ASUS45 KCYS 220510
RWRWY

WYOMING REGIONAL WEATHER ROUNDUP
NATIONAL WEATHER SERVICE CHEYENNE WY
1100 PM MDT FRI JUL 21 2017

NOTE:  "FAIR" INDICATES FEW OR NO CLOUDS BELOW 12,000 FEET
WITH NO SIGNIFICANT WEATHER AND/OR OBSTRUCTIONS TO VISIBILITY.

WYZ001-220600-
YELLOWSTONE NATIONAL PARK

CITY           SKY/WX    TMP DP  RH WIND       PRES   REMARKS
LK YELLOWSTONE   N/A     50  38  63 CALM      30.37R
W YELLOWSTONE  NOT AVBL

$$
WYZ002>013-054>058-071-098>099-220600-
NORTHERN WYOMING

CITY           SKY/WX    TMP DP  RH WIND       PRES   REMARKS
JACKSON        FAIR      54  39  58 NE3       30.26R
CODY           FAIR      70  36  28 CALM      30.14S
GREYBULL       FAIR      77  35  21 W5        29.99S
WORLAND        FAIR      77  33  20 NE6G24    30.01R
SHERIDAN       FAIR      66  44  45 CALM      30.04S
BUFFALO        FAIR      68  38  33 W7        30.11F
GILLETTE       FAIR      65  38  36 S3        30.05S
HULETT         FAIR      64  41  42 SE6       30.05F
NEWCASTLE      FAIR      72  37  28 N8        30.04S

$$
WYZ014>020-022>026-101>103-220600-
CENTRAL WYOMING

CITY           SKY/WX    TMP DP  RH WIND       PRES   REMARKS
BIG PINEY      FAIR      57  32  38 N13       30.30R
PINEDALE       FAIR      54  37  54 W5        30.31R
DUBOIS         FAIR      57  25  28 NW10      30.30S
LANDER         FAIR      73  30  20 CALM      30.13R
RIVERTON       FAIR      72  25  17 NW15      30.11R
CASPER         FAIR      73  46  38 SW13G23   30.10R
DOUGLAS        FAIR      70  51  51 SE7       30.09F

$$
WYZ021-027>030-104>119-220600-
SOUTHERN WYOMING

CITY           SKY/WX    TMP DP  RH WIND       PRES   REMARKS
EVANSTON       FAIR      69  40  34 N6        30.28R
KEMMERER         N/A    N/A N/A N/A NW9       30.30S
FORT BRIDGER   FAIR      70  33  25 N6        30.30S
ROCK SPRINGS   FAIR      67  48  50 S10G24    30.26R
RAWLINS        FAIR      63  46  54 E7        30.27R
SARATOGA       FAIR      59  50  72 SE14G21   30.30S
LARAMIE        FAIR      55  50  83 S10       30.30F
CHEYENNE       CLOUDY    62  56  80 S5        30.21F
TORRINGTON     FAIR      76  50  40 NE10      30.04R
PINE BLUFFS    FAIR      68  50  52 W14G20    30.17F

$$




USA.gov is the U.S. government's official web portal to all federal, state and local government web resources and services.